TimeCDT,TemperatureF,Dew PointF,Humidity,Sea Level PressureIn,VisibilityMPH,Wind Direction,Wind SpeedMPH,Gust SpeedMPH,PrecipitationIn,Events,Conditions,WindDirDegrees,DateUTC
12:12 AM,55.4,48.2,77,29.94,10.0,NW,3.5,-,N/A,,Clear,320,2013-09-22 05:12:00
12:15 AM,54.5,49.3,83,29.94,10.0,NW,3.5,-,N/A,,Clear,320,2013-09-22 05:15:00
12:35 AM,54.5,49.3,83,29.94,10.0,NW,4.6,-,N/A,,Clear,320,2013-09-22 05:35:00
1:10 AM,53.6,48.2,82,29.94,10.0,NW,3.5,-,N/A,,Clear,320,2013-09-22 06:10:00
1:30 AM,53.6,48.2,82,29.95,10.0,NNW,5.8,-,N/A,,Clear,330,2013-09-22 06:30:00
1:55 AM,52.9,48.9,86,29.94,10.0,NNW,3.5,-,N/A,,Clear,330,2013-09-22 06:55:00
2:51 AM,51.8,48.2,88,29.95,10.0,Calm,Calm,-,N/A,,Clear,0,2013-09-22 07:51:00
3:12 AM,51.8,48.2,88,29.95,10.0,North,3.5,-,N/A,,Clear,10,2013-09-22 08:12:00
3:30 AM,50.0,48.2,94,29.95,10.0,North,3.5,-,N/A,,Clear,360,2013-09-22 08:30:00
3:35 AM,50.9,49.3,94,29.95,10.0,North,3.5,-,N/A,,Clear,10,2013-09-22 08:35:00
3:55 AM,50.2,48.6,94,29.95,10.0,North,3.5,-,N/A,,Clear,350,2013-09-22 08:55:00
4:15 AM,49.5,48.2,95,29.96,10.0,North,4.6,-,N/A,,Clear,360,2013-09-22 09:15:00
4:35 AM,49.5,48.2,95,29.96,10.0,North,3.5,-,N/A,,Clear,360,2013-09-22 09:35:00
4:55 AM,49.3,48.2,96,29.96,10.0,North,3.5,-,N/A,,Clear,360,2013-09-22 09:55:00
5:15 AM,49.3,48.0,95,29.97,10.0,Calm,Calm,-,N/A,,Clear,0,2013-09-22 10:15:00
5:35 AM,49.1,47.8,95,29.97,10.0,Calm,Calm,-,N/A,,Clear,0,2013-09-22 10:35:00
5:55 AM,48.4,46.8,94,29.98,10.0,Calm,Calm,-,N/A,,Clear,0,2013-09-22 10:55:00
6:15 AM,48.2,47.3,97,29.99,10.0,Calm,Calm,-,N/A,,Clear,0,2013-09-22 11:15:00
6:35 AM,47.8,46.8,96,29.99,10.0,Calm,Calm,-,N/A,,Clear,0,2013-09-22 11:35:00
6:55 AM,47.8,47.3,98,30.00,10.0,Calm,Calm,-,N/A,,Clear,0,2013-09-22 11:55:00
7:15 AM,49.3,48.2,96,30.00,10.0,Calm,Calm,-,N/A,,Clear,0,2013-09-22 12:15:00
7:35 AM,50.5,48.6,93,30.01,10.0,Calm,Calm,-,N/A,,Clear,0,2013-09-22 12:35:00
7:55 AM,52.0,49.1,90,30.02,10.0,ENE,4.6,-,N/A,,Clear,70,2013-09-22 12:55:00
8:15 AM,53.6,49.8,87,30.02,10.0,ENE,3.5,-,N/A,,Clear,60,2013-09-22 13:15:00
8:35 AM,55.6,50.0,81,30.02,10.0,ENE,4.6,-,N/A,,Clear,70,2013-09-22 13:35:00
8:55 AM,57.6,51.1,79,30.03,10.0,ENE,3.5,-,N/A,,Clear,70,2013-09-22 13:55:00
9:15 AM,59.2,50.0,72,30.03,10.0,East,4.6,-,N/A,,Clear,80,2013-09-22 14:15:00
9:35 AM,61.9,50.0,65,30.03,10.0,East,6.9,-,N/A,,Clear,80,2013-09-22 14:35:00
9:55 AM,63.0,49.1,61,30.03,10.0,ESE,6.9,-,N/A,,Clear,110,2013-09-22 14:55:00
10:15 AM,63.5,48.2,57,30.03,10.0,ESE,6.9,-,N/A,,Clear,110,2013-09-22 15:15:00
10:35 AM,65.1,48.6,55,30.03,10.0,ESE,5.8,-,N/A,,Clear,120,2013-09-22 15:35:00
10:55 AM,64.8,47.5,53,30.03,10.0,ENE,8.1,-,N/A,,Clear,60,2013-09-22 15:55:00
11:15 AM,65.5,47.5,52,30.03,10.0,NNE,5.8,-,N/A,,Clear,20,2013-09-22 16:15:00
11:35 AM,66.7,48.0,51,30.02,10.0,NE,3.5,-,N/A,,Clear,40,2013-09-22 16:35:00
11:55 AM,67.5,48.0,50,30.02,10.0,ENE,9.2,-,N/A,,Clear,70,2013-09-22 16:55:00
12:15 PM,67.6,47.5,48,30.02,10.0,Calm,Calm,-,N/A,,Clear,0,2013-09-22 17:15:00
12:35 PM,68.9,48.0,47,30.02,10.0,ENE,6.9,-,N/A,,Clear,60,2013-09-22 17:35:00
12:55 PM,69.4,46.9,45,30.01,10.0,NE,6.9,-,N/A,,Clear,50,2013-09-22 17:55:00
1:15 PM,70.0,47.7,45,30.00,10.0,Calm,Calm,-,N/A,,Clear,0,2013-09-22 18:15:00
1:35 PM,70.2,46.6,43,29.99,10.0,NNE,4.6,-,N/A,,Clear,20,2013-09-22 18:35:00
1:55 PM,70.9,45.9,41,29.98,10.0,NNE,5.8,-,N/A,,Clear,30,2013-09-22 18:55:00
2:15 PM,70.9,46.4,42,29.98,10.0,ENE,5.8,-,N/A,,Clear,70,2013-09-22 19:15:00
2:35 PM,72.1,47.3,41,29.97,10.0,Calm,Calm,-,N/A,,Clear,0,2013-09-22 19:35:00
2:55 PM,71.8,46.9,41,29.96,10.0,ENE,5.8,-,N/A,,Clear,70,2013-09-22 19:55:00
3:15 PM,72.7,46.6,39,29.96,10.0,Calm,Calm,-,N/A,,Clear,0,2013-09-22 20:15:00
3:35 PM,73.4,45.7,37,29.96,10.0,North,5.8,-,N/A,,Clear,350,2013-09-22 20:35:00
3:55 PM,73.4,45.9,37,29.96,10.0,NNE,4.6,-,N/A,,Clear,30,2013-09-22 20:55:00
4:15 PM,73.0,44.6,36,29.95,10.0,NNE,4.6,-,N/A,,Clear,30,2013-09-22 21:15:00
4:35 PM,73.8,43.9,34,29.95,10.0,NE,3.5,-,N/A,,Clear,40,2013-09-22 21:35:00
4:55 PM,73.6,45.3,36,29.95,10.0,NNE,6.9,-,N/A,,Clear,30,2013-09-22 21:55:00
5:15 PM,72.7,44.4,36,29.95,10.0,Calm,Calm,-,N/A,,Clear,0,2013-09-22 22:15:00
5:35 PM,72.3,45.7,39,29.96,10.0,NE,5.8,-,N/A,,Clear,50,2013-09-22 22:35:00
5:55 PM,71.1,47.1,42,29.96,10.0,ENE,5.8,-,N/A,,Clear,70,2013-09-22 22:55:00
6:15 PM,69.8,47.8,46,29.96,10.0,East,4.6,-,N/A,,Clear,80,2013-09-22 23:15:00
6:35 PM,67.6,48.9,51,29.96,10.0,East,4.6,-,N/A,,Clear,90,2013-09-22 23:35:00
6:55 PM,65.3,49.5,57,29.96,10.0,East,3.5,-,N/A,,Clear,100,2013-09-22 23:55:00
7:15 PM,60.6,53.2,77,29.96,10.0,Calm,Calm,-,N/A,,Clear,0,2013-09-23 00:15:00
7:35 PM,58.6,52.7,81,29.97,10.0,Calm,Calm,-,N/A,,Clear,0,2013-09-23 00:35:00
7:55 PM,56.3,53.1,89,29.97,10.0,Calm,Calm,-,N/A,,Clear,0,2013-09-23 00:55:00
8:15 PM,55.4,52.2,89,29.98,10.0,Calm,Calm,-,N/A,,Clear,0,2013-09-23 01:15:00
8:35 PM,54.5,52.9,94,29.99,10.0,Calm,Calm,-,N/A,,Clear,0,2013-09-23 01:35:00
8:55 PM,53.8,52.3,95,29.99,10.0,Calm,Calm,-,N/A,,Clear,0,2013-09-23 01:55:00
9:15 PM,53.2,52.0,95,29.99,10.0,Calm,Calm,-,N/A,,Clear,0,2013-09-23 02:15:00
9:35 PM,52.9,51.8,96,29.99,10.0,Calm,Calm,-,N/A,,Clear,0,2013-09-23 02:35:00
9:55 PM,52.7,52.0,97,29.99,10.0,Calm,Calm,-,N/A,,Clear,0,2013-09-23 02:55:00
10:15 PM,52.5,51.4,96,29.99,10.0,Calm,Calm,-,N/A,,Clear,0,2013-09-23 03:15:00
10:35 PM,52.0,50.9,96,30.00,10.0,Calm,Calm,-,N/A,,Clear,0,2013-09-23 03:35:00
10:55 PM,51.3,50.5,97,30.00,10.0,Calm,Calm,-,N/A,,Clear,0,2013-09-23 03:55:00
11:15 PM,52.2,51.6,98,30.00,10.0,Calm,Calm,-,N/A,,Clear,0,2013-09-23 04:15:00
11:35 PM,51.1,50.2,97,30.00,10.0,Calm,Calm,-,N/A,,Clear,0,2013-09-23 04:35:00
11:55 PM,52.0,51.3,97,30.00,10.0,Calm,Calm,-,N/A,,Clear,0,2013-09-23 04:55:00